Skip Page Navigation
NASA JPL Caltech
NASA Logo - Jet Propulsion Laboratory + View the NASA Portal
+ Center for Near-Earth Object Studies
JPL Home Earth Solar System Stars & Galaxies Technology
JPL Solar System Dynamics
BODIES ORBITS EPHEMERIDES TOOLS PHYSICAL DATA DISCOVERY FAQ SITE MAP
JPL Small-Body Database Browser
Search: [ help ]  
(2006 UD63)
Classification: Amor [NEO]          SPK-ID: 3352688
Ephemeris | Orbit Diagram | Orbital Elements | Mission Design | Physical Parameters | Close-Approach Data ]

[ hide orbit diagram ]

For accurate long-term ephemerides, please instead use our Horizons system.This orbit viewer was implemented using two-body methods, and hence should not be used for determining accurate long-term trajectories (over several years or decades) or planetary encounter circumstances.


[ revert to old Java-based viewer ]

Orbital Elements at Epoch 2459000.5 (2020-May-31.0) TDB
Reference: JPL 106 (heliocentric ecliptic J2000)
 Element Value Uncertainty (1-sigma)   Units 
e .4684808535567053 3.5513e-08  
a 2.323223082454266 1.0185e-08 au
q 1.234837549783452 8.3149e-08 au
i 7.428149654162818 4.3548e-06 deg
node 148.8546874008424 1.739e-05 deg
peri 135.2993830468207 2.6443e-05 deg
M 350.9142848990991 6.5817e-06 deg
tp 2459033.143101219853
(2020-Jul-02.64310122)
2.3503e-05 TDB
period 1293.40578134373
3.54
8.5052e-06
2.329e-08
d
yr
n .2783349241148381 1.8303e-09 deg/d
Q 3.411608615125081 1.4956e-08 au
  Orbit Determination Parameters
   # obs. used (total)      570  
   data-arc span      6765 days (18.52 yr)  
   first obs. used      2002-03-12  
   last obs. used      2020-09-18  
   planetary ephem.      DE431  
   SB-pert. ephem.      SB431-N16  
   condition code      0  
   norm. resid. RMS      .3764  
   source      ORB  
   producer      Otto Matic  
   solution date      2020-Sep-19 06:48:43  

Additional Information
 Earth MOID = .238627 au 
 Jupiter MOID = 1.82398 au 
 T_jup = 3.410 
[ show covariance matrix ]

Ephemeris | Orbit Diagram | Orbital Elements | Mission Design | Physical Parameters | Close-Approach Data ]

Physical Parameter Table
Parameter Symbol Value Units Sigma Reference Notes
absolute magnitude H 18.7   n/a E2013S06  

[ hide close-approach data ]
Close-Approach Data   ...sorted by Date/Time (TDB)
Date/Time (TDB) Time Uncertainty
(days_HH:MM)
Body Nominal Distance (au) Minimum Distance (au) Maximum Distance (au) V-relative (km/s) V-infinity (km/s) JD (TDB) Time Uncertainty (minutes) Semi-major axis (km) Semi-minor axis (km) range-LOV angle (deg) N-sigma BP Orbit Ref. Reference Modified
1928-Aug-06 06:34 00:02 Earth 0.497603381547163 0.497595057039266 0.497611706059472 3.75586854458933 3.75444260509012 2425464.773860757 1.58349622433431 421.617055476675 13.2066826467845 9.95446389532312 1090982.68883938 T 106 CATAB v2.0f-lin.ifort 2020-Sep-19 06:48:48 2020-Sep-19 06:49
1935-Jul-11 18:23 < 00:01 Earth 0.241519347983415 0.241516934101047 0.24152176186614 4.9014663656361 4.89921506158819 2427995.266237500 0.120288152857202 121.276532666726 9.39122265945582 -7.60588980572871 262288.149090215 T 106 CATAB v2.0f-lin.ifort 2020-Sep-19 06:48:48 2020-Sep-19 06:49
1955-Feb-10 16:19 < 00:01 Jupiter 1.97948810418545 1.97948732445356 1.97948888391756 1.50425387763703 1.186161952247 2435149.179568709 0.794307767417844 183.690827951102 98.0223177299822 80.3765308971302 2689299.18800131 T 106 CATAB v2.0f-lin.ifort 2020-Sep-19 06:48:48 2020-Sep-19 06:49
1974-Jul-21 09:54 < 00:01 Earth 0.360525691608382 0.360521198299717 0.360530184917067 4.61328704505625 4.61168475518799 2442249.912676635 0.510087931139747 224.106566282879 7.39595074271838 -0.957984582398349 283453.749354429 T 106 CATAB v2.0f-lin.ifort 2020-Sep-19 06:48:48 2020-Sep-19 06:49
1981-Jul-09 12:04 < 00:01 Earth 0.30014288905543 0.300139756727372 0.300146021383472 5.79540678810108 5.79387479158034 2444795.002817180 0.103020614660211 156.158774284298 10.2985049021613 -1.02100141293717 185027.895237976 T 106 CATAB v2.0f-lin.ifort 2020-Sep-19 06:48:48 2020-Sep-19 06:49
1990-Jun-04 16:28 < 00:01 Jupiter 1.85456787246131 1.85456745088117 1.85456829404176 1.57031761490304 1.24597463825443 2448047.186323149 0.34390324524117 120.402858690519 73.2882781804829 81.8260362269599 2942868.92980324 T 106 CATAB v2.0f-lin.ifort 2020-Sep-19 06:48:48 2020-Sep-19 06:49
2020-Jul-13 21:11 < 00:01 Earth 0.243920823417861 0.243920556402749 0.243921090432973 4.44342991520642 4.44097087668099 2459044.382816267 0.0847019733916561 13.3192407635336 9.36309554340419 0.996367128208973 2236615.01841985 T 106 CATAB v2.0f-lin.ifort 2020-Sep-19 06:48:48 2020-Sep-19 06:49
2025-Oct-04 14:31 < 00:01 Jupiter 1.812049610648 1.81204928422424 1.81204993707269 1.55067630572346 1.21231974413441 2460953.104576050 0.442675391287164 104.714281442197 85.5207959246488 61.0519378596133 3049891.20942429 T 106 CATAB v2.0f-lin.ifort 2020-Sep-19 06:48:48 2020-Sep-19 06:49
2052-Jul-21 11:33 < 00:01 Mars 0.0276729873650555 0.0276727775630489 0.027673197277833 9.0812577146327 9.08011843224324 2470739.981152204 0.569959975696195 211.083535040151 9.52517639589556 88.8216105882466 436302.09107651 T 106 CATAB v2.0f-lin.ifort 2020-Sep-19 06:48:48 2020-Sep-19 06:49
2059-Jul-22 07:46 < 00:01 Earth 0.347320077561563 0.347314122673292 0.347326032449835 4.54401085978611 4.54232227136153 2473296.823301855 0.754853519687589 296.937882439823 7.74428089093275 -0.182675139719992 169158.072998578 T 106 CATAB v2.0f-lin.ifort 2020-Sep-19 06:48:48 2020-Sep-19 06:49
2061-Feb-03 06:59 00:02 Jupiter 1.82417322877649 1.82417193881943 1.82417451873718 1.50981276352713 1.16226934029958 2473858.791153643 1.58281857597439 241.25202722828 87.468043343863 31.8419475153833 2825026.43235934 T 106 CATAB v2.0f-lin.ifort 2020-Sep-19 06:48:48 2020-Sep-19 06:49
2066-Jul-07 07:58 00:01 Earth 0.415304866365976 0.415293990270082 0.415315742481488 7.16187777043735 7.16098189919574 2475838.832023734 1.26126771751194 560.739561297107 14.656306032283 14.7239217256823 654896.941424554 T 106 CATAB v2.0f-lin.ifort 2020-Sep-19 06:48:48 2020-Sep-19 06:49
2096-May-29 23:52 00:04 Jupiter 1.91164497688236 1.91164085235031 1.91164910147537 1.35125075879952 0.969384986363616 2486758.494438113 4.33656836340477 1101.17614549366 121.044461133555 23.8292395352003 1889480.51939439 T 106 CATAB v2.0f-lin.ifort 2020-Sep-19 06:48:48 2020-Sep-19 06:49
2098-Aug-06 01:08 00:05 Earth 0.480469694284637 0.480445773929056 0.480493614641612 4.23357679292102 4.23226668787943 2487556.547006957 4.6846397993681 1193.50645818195 11.3252271529078 0.828429002827636 313808.078600372 T 106 CATAB v2.0f-lin.ifort 2020-Sep-19 06:48:48 2020-Sep-19 06:49
2105-Jul-15 06:50 < 00:01 Earth 0.241729935282653 0.2417206659557 0.241739204609112 5.12923334687508 5.12708393091456 2490090.784490588 0.637422815356664 461.894696853638 8.65967146064462 -1.30319120576534 61239.8285638421 T 106 CATAB v2.0f-lin.ifort 2020-Sep-19 06:48:48 2020-Sep-19 06:49
2144-Jul-24 08:02 00:05 Earth 0.365292962664029 0.365253380143508 0.365332545185214 4.97666931556847 4.97520344295152 2504344.835063186 4.7769845653398 1973.97019220046 7.98622685681732 -0.578291696938002 74709.7020767838 T 106 CATAB v2.0f-lin.ifort 2020-Sep-19 06:48:48 2020-Sep-19 06:49
2151-Jul-15 07:36 < 00:01 Earth 0.292497784416239 0.292464972720947 0.292530596113045 6.23815355841817 6.23669311560755 2506891.816481128 0.91038315057801 1636.52145711273 9.29069627422133 1.91355377390459 99843.6038169693 T 106 CATAB v2.0f-lin.ifort 2020-Sep-19 06:48:48 2020-Sep-19 06:49
2190-Jul-20 01:10 00:02 Earth 0.276015732359089 0.275988531752296 0.276042932966086 4.72981416804862 4.72777276775168 2521141.548451849 2.08358251391572 1356.43495869962 7.9598893473715 1.04079634541325 86474.8041093563 T 106 CATAB v2.0f-lin.ifort 2020-Sep-19 06:48:48 2020-Sep-19 06:49
2192-May-21 04:36 00:07 Jupiter 1.95100877752381 1.95100210826575 1.95101544685418 1.63373583055365 1.34193923427669 2521812.691422999 6.905103737561 755.448784342466 120.441077631222 -60.6900543718877 2802620.58879687 T 106 CATAB v2.0f-lin.ifort 2020-Sep-19 06:48:48 2020-Sep-19 06:49

Alternate Designations
 2006 UD63 = 2013 LJ25 
Ephemeris | Orbit Diagram | Orbital Elements | Mission Design | Physical Parameters | Close-Approach Data ]
ABOUT SSD CREDITS/AWARDS PRIVACY/COPYRIGHT GLOSSARY LINKS
FirstGov 2020-Sep-21 01:20 UT
(server date/time)  
NASA Home Page
Site Manager:   Ryan S. Park
Webmaster  Alan B. Chamberlin